DMSP 5D-2 F13 DEB, 40516

Orbit data source: Space-Track

DMSP 5D-2 F13 DEB, 40516 is space debris in SSO originally from a launch on Fri, 24 Mar 1995 UTC launched from the Air Force Western Test Range (AFWTR). Debris objects in space refer to the collection of defunct objects orbiting the Earth. Examples of debris include non-operational satellites, rocket bodies, and fragments generated from explosions, collisions, or faulty payload assembly.

Loading next visibility...
Identifier
40516, 1995-015DC
Orbit
SSO
Country
Flag of USUS
Related business
Manufacturer
Unknown
Mission
Spacecraft
Bus & Motor
Unknown
Mass
Unknown
Launch date (UTC)
1995-03-24 (31 years ago)
Launch vehicle
Unknown
Launch site
Air Force Western Test Range (AFWTR)
Object type
Payload
Rocket body
Debris
Shape & HBR
Unknown shape, 0.1 m
Radar Cross Section
Small (<0.1 m²)

Expand to show TLE details & history
Last TLE update: 1 day ago

TLE from 1 day ago
0 DMSP 5D-2 F13 DEB
1 40516U 95015DC  25297.51704166  .00006328  00000-0  22375-2 0  9991
2 40516  98.8016 324.6471 0024779 103.2108 257.1842 14.34795581548644
Epoch: 2025-10-24T12:24Z
TLE epoch observation values (Epoch: 2025-10-24T12:24:32.399Z)
Latitude
-0.0001°
Longitude
105.35131°
Altitude
782.652 km
Speed
7.46 km/s
True Right ascension
21h 38m 35s
True Declination
0° 00' 00"
Sunlit
Object was in daylight at epoch
Visualization orbit readout
Latitude
Unknown
Longitude
Unknown
Altitude
Unknown
Speed
Unknown
Apparent Right ascension
Unknown
Apparent Declination
Unknown
Sunlit
N/A
Visualization observer readout
Local Sidereal Time
14:52:52
Azimuth
Unknown
Elevation
Unknown
Doppler factor
Unknown
Orbital elements
Apogee altitude
790.609 km
Perigee altitude
755.17 km
Semi-major axis
7,151.026 km
Eccentricity
0.00248
Inclination
98.8016°
RAAN
324.6471°
Arg. of periapsis
103.2108°
True anomaly
256.90752°
Mean anomaly
257.1842°
Eccentric anomaly
257.04584°
Mean motion
3.58914 °/min
Orbital period
100.3 mins
BSTAR
0.0022375
Loading maneuver chart data...
Computing Atmospheric mass density...

Documentation

Showing up to 5 results
|